Three Rivers, MI

1:18 AM EST on February 20, 2017 (GMT -0500)
Three Rivers Municipal-Haines

Weather History for KHAI - February, 2009

Change the Weather History Date:

Monday, February 16, 2009

  Actual Average Record
Temperature  
Mean Temperature 26 °F -  
Max Temperature 33 °F 34 °F 66 °F (1954)
Min Temperature 19 °F 17 °F -13 °F (1963)
Degree Days  
Heating Degree Days 39    
Moisture  
Dew Point 19 °F    
Average Humidity 75    
Maximum Humidity 93    
Minimum Humidity 51    
Precipitation  
Precipitation 0.00 in - - ()
Sea Level Pressure  
Sea Level Pressure 30.36 in    
Wind  
Wind Speed 4 mph (WNW)    
Max Wind Speed 8 mph    
Max Gust Speed -    
Visibility 10 miles    
Events      
Averages and records for this station are not official NWS values.
T = Trace of Precipitation, MM = Missing Value Source: NWS Daily Summary

Daily Weather History Graph

Daily Weather History Graph

Search for Another Location

Airport or City:

Trip Planner

Search our weather history database for the weather conditions in past years. The results will help you decide how hot, cold, wet, or windy it might be!

Date:

Astronomy

Feb. 16, 2009 Rise Set
Actual Time 7:36 AM EST 6:16 PM EST
Civil Twilight 7:07 AM EST 6:45 PM EST
Nautical Twilight 6:35 AM EST 7:18 PM EST
Astronomical Twilight 6:03 AM EST 7:50 PM EST
Moon 1:33 AM EST (2/16) 10:46 AM EST (2/16)
Length of Visible Light 11h 37m
Length of Day
10h 40m
Waning Gibbous, 52% of the Moon is Illuminated
Feb 16
Waning Gibbous
Feb 16
Last Quarter
Feb 24
New
Mar 4
First Quarter
Mar 10
Full

Hourly Weather History & Observations

Time (EST) Temp. Windchill Dew Point Humidity Pressure Visibility Wind Dir Wind Speed Gust Speed Precip Events Conditions
12:17 AM 26.6 °F 20.0 °F 23.0 °F 86% 30.33 in 10.0 mi NNW 5.8 mph - N/A   Scattered Clouds
12:37 AM 26.6 °F 21.2 °F 23.0 °F 86% 30.33 in 10.0 mi NNW 4.6 mph - N/A   Clear
12:55 AM 26.6 °F 21.2 °F 23.0 °F 86% 30.33 in 10.0 mi NNW 4.6 mph - N/A   Clear
1:37 AM 24.8 °F 19.1 °F 21.2 °F 86% 30.33 in 10.0 mi NNW 4.6 mph - N/A   Clear
1:55 AM 24.8 °F 16.9 °F 21.2 °F 86% 30.33 in 10.0 mi NNW 6.9 mph - N/A   Clear
2:17 AM 24.8 °F 19.1 °F 21.2 °F 86% 30.34 in 10.0 mi North 4.6 mph - N/A   Clear
2:37 AM 23.0 °F 15.8 °F 21.2 °F 93% 30.34 in 10.0 mi North 5.8 mph - N/A   Clear
2:57 AM 23.0 °F 18.4 °F 21.2 °F 93% 30.35 in 10.0 mi North 3.5 mph - N/A   Clear
3:17 AM 23.0 °F 18.4 °F 19.4 °F 86% 30.34 in 10.0 mi North 3.5 mph - N/A   Clear
3:37 AM 23.0 °F - 19.4 °F 86% 30.33 in 10.0 mi Calm Calm - N/A   Clear
3:55 AM 23.0 °F - 19.4 °F 86% 30.33 in 10.0 mi Calm Calm - N/A   Clear
4:17 AM 23.0 °F - 19.4 °F 86% 30.34 in 10.0 mi Calm Calm - N/A   Clear
4:37 AM 23.0 °F 17.0 °F 19.4 °F 86% 30.35 in 10.0 mi WNW 4.6 mph - N/A   Clear
4:55 AM 23.0 °F 17.0 °F 19.4 °F 86% 30.36 in 10.0 mi NW 4.6 mph - N/A   Scattered Clouds
5:17 AM 23.0 °F 18.4 °F 19.4 °F 86% 30.36 in 10.0 mi NNW 3.5 mph - N/A   Mostly Cloudy
5:37 AM 23.0 °F 18.4 °F 19.4 °F 86% 30.36 in 10.0 mi NNW 3.5 mph - N/A   Mostly Cloudy
5:55 AM 21.2 °F 16.4 °F 19.4 °F 93% 30.36 in 10.0 mi North 3.5 mph - N/A   Mostly Cloudy
6:17 AM 21.2 °F 14.9 °F 19.4 °F 93% 30.36 in 10.0 mi NE 4.6 mph - N/A   Scattered Clouds
6:37 AM 21.2 °F - 19.4 °F 93% 30.37 in 10.0 mi Calm Calm - N/A   Clear
6:55 AM 21.2 °F - 19.4 °F 93% 30.36 in 10.0 mi Calm Calm - N/A   Clear
7:17 AM 21.2 °F - 19.4 °F 93% 30.37 in 10.0 mi Calm Calm - N/A   Clear
7:37 AM 19.4 °F - 17.6 °F 93% 30.38 in 10.0 mi Calm Calm - N/A   Clear
7:55 AM 19.4 °F 14.3 °F 17.6 °F 93% 30.38 in 10.0 mi NW 3.5 mph - N/A   Clear
8:17 AM 21.2 °F - 19.4 °F 93% 30.39 in 10.0 mi Calm Calm - N/A   Clear
8:37 AM 23.0 °F 18.4 °F 19.4 °F 86% 30.39 in 10.0 mi NNW 3.5 mph - N/A   Clear
8:55 AM 23.0 °F 18.4 °F 19.4 °F 86% 30.39 in 10.0 mi NNW 3.5 mph - N/A   Clear
9:17 AM 23.0 °F - 19.4 °F 86% 30.39 in 10.0 mi Calm Calm - N/A   Clear
9:37 AM 23.0 °F - 19.4 °F 86% 30.39 in 10.0 mi Calm Calm - N/A   Clear
9:55 AM 24.8 °F 20.5 °F 19.4 °F 80% 30.39 in 10.0 mi NNE 3.5 mph - N/A   Clear
10:17 AM 26.6 °F - 19.4 °F 74% 30.40 in 10.0 mi Calm Calm - N/A   Clear
10:37 AM 28.4 °F - 19.4 °F 69% 30.41 in 10.0 mi Calm Calm - N/A   Clear
10:55 AM 28.4 °F 24.6 °F 17.6 °F 64% 30.42 in 10.0 mi WNW 3.5 mph - N/A   Clear
11:17 AM 28.4 °F - 15.8 °F 59% 30.42 in 10.0 mi Calm Calm - N/A   Clear
11:37 AM 30.2 °F 26.7 °F 17.6 °F 60% 30.42 in 10.0 mi North 3.5 mph - N/A   Scattered Clouds
12:17 PM 30.2 °F 26.7 °F 15.8 °F 55% 30.42 in 10.0 mi WSW 3.5 mph - N/A   Mostly Cloudy
12:37 PM 32.0 °F 27.5 °F 15.8 °F 51% 30.42 in 10.0 mi West 4.6 mph - N/A   Overcast
1:16 PM 32.0 °F 25.6 °F 17.6 °F 55% 30.40 in 10.0 mi WNW 6.9 mph - N/A   Mostly Cloudy
1:37 PM 32.0 °F 27.5 °F 17.6 °F 55% 30.39 in 10.0 mi NW 4.6 mph - N/A   Scattered Clouds
1:55 PM 32.0 °F 27.5 °F 17.6 °F 55% 30.38 in 10.0 mi West 4.6 mph - N/A   Clear
2:16 PM 32.0 °F 24.8 °F 17.6 °F 55% 30.37 in 10.0 mi West 8.1 mph - N/A   Scattered Clouds
2:37 PM 32.0 °F - 15.8 °F 51% 30.37 in 10.0 mi Calm Calm - N/A   Scattered Clouds
2:55 PM 32.0 °F 26.4 °F 17.6 °F 55% 30.37 in 10.0 mi WNW 5.8 mph - N/A   Clear
3:17 PM 32.0 °F 28.7 °F 17.6 °F 55% 30.37 in 10.0 mi NW 3.5 mph - N/A   Scattered Clouds
3:36 PM 32.0 °F 26.4 °F 15.8 °F 51% 30.37 in 10.0 mi West 5.8 mph - N/A   Overcast
3:55 PM 33.8 °F 27.0 °F 17.6 °F 52% 30.37 in 10.0 mi West 8.1 mph - N/A   Overcast
4:17 PM 32.0 °F 28.7 °F 17.6 °F 55% 30.36 in 10.0 mi WSW 3.5 mph - N/A   Mostly Cloudy
4:36 PM 32.0 °F 26.4 °F 17.6 °F 55% 30.35 in 10.0 mi WSW 5.8 mph - N/A   Overcast
4:55 PM 32.0 °F 27.5 °F 17.6 °F 55% 30.35 in 10.0 mi WSW 4.6 mph - N/A   Scattered Clouds
5:16 PM 32.0 °F 27.5 °F 17.6 °F 55% 30.34 in 10.0 mi SW 4.6 mph - N/A   Clear
5:36 PM 32.0 °F 27.5 °F 17.6 °F 55% 30.33 in 10.0 mi WSW 4.6 mph - N/A   Clear
5:55 PM 30.2 °F 23.4 °F 19.4 °F 64% 30.33 in 10.0 mi SSW 6.9 mph - N/A   Scattered Clouds
6:16 PM 30.2 °F - 19.4 °F 64% 30.33 in 10.0 mi Calm Calm - N/A   Clear
6:37 PM 28.4 °F 24.6 °F 19.4 °F 69% 30.32 in 10.0 mi South 3.5 mph - N/A   Clear
6:55 PM 30.2 °F - 19.4 °F 64% 30.32 in 10.0 mi Calm Calm - N/A   Clear
7:16 PM 26.6 °F - 21.2 °F 80% 30.32 in 10.0 mi Calm Calm - N/A   Clear
7:37 PM 26.6 °F - 21.2 °F 80% 30.32 in 10.0 mi Calm Calm - N/A   Clear
7:55 PM 28.4 °F - 21.2 °F 74% 30.33 in 10.0 mi Calm Calm - N/A   Clear
8:17 PM 26.6 °F 22.6 °F 21.2 °F 80% 30.32 in 10.0 mi South 3.5 mph - N/A   Clear
8:37 PM 26.6 °F 22.6 °F 21.2 °F 80% 30.32 in 10.0 mi South 3.5 mph - N/A   Clear
8:55 PM 26.6 °F 22.6 °F 21.2 °F 80% 30.31 in 10.0 mi South 3.5 mph - N/A   Clear
9:16 PM 26.6 °F 21.2 °F 21.2 °F 80% 30.31 in 10.0 mi South 4.6 mph - N/A   Scattered Clouds
9:37 PM 26.6 °F 21.2 °F 21.2 °F 80% 30.30 in 10.0 mi South 4.6 mph - N/A   Scattered Clouds
9:55 PM 26.6 °F 20.0 °F 21.2 °F 80% 30.29 in 10.0 mi South 5.8 mph - N/A   Clear
10:17 PM 26.6 °F 21.2 °F 21.2 °F 80% 30.28 in 10.0 mi SSE 4.6 mph - N/A   Clear
10:36 PM 26.6 °F 20.0 °F 21.2 °F 80% 30.27 in 10.0 mi South 5.8 mph - N/A   Clear
10:55 PM 26.6 °F 20.0 °F 21.2 °F 80% 30.27 in 10.0 mi South 5.8 mph - N/A   Clear
11:17 PM 26.6 °F 21.2 °F 23.0 °F 86% 30.27 in 10.0 mi SSW 4.6 mph - N/A   Clear
11:36 PM 26.6 °F 20.0 °F 23.0 °F 86% 30.27 in 10.0 mi South 5.8 mph - N/A   Clear